Total_Precipitation_Accumulation
0.00 0.00 0.00 0.00 0.01 0.01 0.01 0.01 0.01 0.01 0.01 0.01 0.01 0.02 0.02 0.02 0.01 0.01 0.01 0.01 0.01 0.01 0.01 0.01 0.01 0.01 0.01 0.01 0.01 0.01 0.02 0.01 0.01 0.01 0.01 0.01 0.01 0.01 0.01 0.01 0.01 0.06 0.06 0.08 0.09 0.09 0.12 0.11 0.11 0.11 0.15 0.13 0.12 0.08 0.08 0.07 0.06 0.06 0.06 0.07 0.07 0.09 0.09 0.11 0.13 0.13 0.12 0.09 0.09
0.00 0.00 0.00 0.00 0.01 0.01 0.01 0.01 0.01 0.01 0.01 0.01 0.01 0.02 0.02 0.01 0.01 0.01 0.01 0.01 0.01 0.01 0.01 0.01 0.02 0.02 0.02 0.02 0.02 0.02 0.01 0.01 0.02 0.02 0.02 0.01 0.01 0.01 0.01 0.01 0.01 0.04 0.04 0.08 0.10 0.10 0.13 0.13 0.20 0.20 0.21 0.20 0.19 0.16 0.16 0.09 0.09 0.08 0.08 0.07 0.08 0.10 0.10 0.09 0.10 0.10 0.12 0.12 0.10
0.00 0.00 0.00 0.00 0.00 0.00 0.01 0.01 0.01 0.01 0.01 0.01 0.01 0.01 0.01 0.01 0.01 0.01 0.01 0.01 0.01 0.01 0.01 0.02 0.02 0.02 0.02 0.02 0.01 0.01 0.01 0.01 0.02 0.02 0.02 0.01 0.01 0.01 0.01 0.01 0.01 0.02 0.02 0.06 0.11 0.11 0.15 0.18 0.27 0.27 0.28 0.27 0.24 0.21 0.21 0.16 0.14 0.11 0.11 0.09 0.09 0.09 0.09 0.10 0.10 0.10 0.13 0.14 0.13
0.00 0.00 0.00 0.00 0.01 0.01 0.01 0.01 0.01 0.01 0.01 0.01 0.01 0.01 0.01 0.01 0.01 0.01 0.01 0.01 0.01 0.01 0.01 0.02 0.03 0.02 0.02 0.02 0.02 0.02 0.01 0.01 0.02 0.02 0.02 0.02 0.01 0.01 0.01 0.01 0.01 0.01 0.01 0.06 0.11 0.11 0.17 0.25 0.33 0.33 0.37 0.34 0.31 0.26 0.26 0.22 0.18 0.15 0.15 0.16 0.12 0.11 0.11 0.11 0.11 0.11 0.13 0.14 0.18
0.00 0.00 0.00 0.00 0.00 0.00 0.01 0.01 0.01 0.01 0.01 0.01 0.01 0.01 0.01 0.00 0.01 0.01 0.01 0.01 0.01 0.01 0.01 0.02 0.03 0.03 0.03 0.02 0.02 0.02 0.02 0.01 0.01 0.02 0.02 0.02 0.01 0.01 0.01 0.01 0.01 0.01 0.01 0.04 0.10 0.10 0.18 0.26 0.36 0.36 0.43 0.38 0.35 0.31 0.31 0.29 0.24 0.21 0.21 0.24 0.20 0.15 0.15 0.14 0.13 0.13 0.13 0.14 0.19
0.00 0.00 0.00 0.00 0.00 0.00 0.00 0.01 0.01 0.01 0.01 0.01 0.01 0.01 0.01 0.00 0.01 0.01 0.01 0.01 0.01 0.01 0.01 0.02 0.02 0.03 0.03 0.02 0.02 0.02 0.02 0.02 0.01 0.01 0.01 0.01 0.01 0.01 0.01 0.01 0.01 0.01 0.01 0.01 0.08 0.08 0.13 0.29 0.37 0.37 0.41 0.37 0.35 0.32 0.32 0.32 0.31 0.25 0.25 0.26 0.22 0.22 0.22 0.19 0.17 0.17 0.17 0.16 0.16
0.00 0.00 0.00 0.00 0.00 0.00 0.00 0.00 0.00 0.00 0.01 0.01 0.01 0.00 0.00 0.00 0.01 0.01 0.01 0.01 0.01 0.02 0.02 0.03 0.03 0.02 0.02 0.03 0.03 0.03 0.03 0.02 0.01 0.01 0.01 0.02 0.02 0.02 0.02 0.02 0.02 0.02 0.02 0.02 0.05 0.05 0.09 0.22 0.35 0.35 0.39 0.42 0.34 0.32 0.32 0.34 0.36 0.38 0.38 0.28 0.25 0.27 0.27 0.29 0.25 0.25 0.20 0.16 0.20
0.00 0.00 0.00 0.00 0.00 0.00 0.00 0.00 0.01 0.01 0.01 0.01 0.01 0.00 0.00 0.00 0.01 0.01 0.01 0.01 0.02 0.02 0.02 0.03 0.03 0.03 0.03 0.03 0.04 0.04 0.03 0.02 0.02 0.02 0.02 0.02 0.02 0.02 0.02 0.02 0.02 0.02 0.02 0.02 0.03 0.03 0.06 0.15 0.28 0.28 0.41 0.46 0.39 0.36 0.36 0.37 0.37 0.38 0.38 0.33 0.29 0.28 0.28 0.30 0.36 0.36 0.35 0.23 0.28
0.00 0.00 0.00 0.00 0.00 0.00 0.00 0.01 0.01 0.01 0.01 0.01 0.00 0.00 0.00 0.00 0.01 0.01 0.01 0.02 0.02 0.02 0.02 0.02 0.03 0.03 0.03 0.03 0.03 0.03 0.03 0.03 0.03 0.02 0.02 0.02 0.02 0.02 0.02 0.03 0.03 0.02 0.02 0.03 0.03 0.03 0.07 0.14 0.22 0.22 0.36 0.43 0.48 0.45 0.45 0.41 0.39 0.39 0.39 0.35 0.31 0.28 0.28 0.30 0.33 0.33 0.36 0.32 0.31
0.01 0.00 0.00 0.00 0.01 0.01 0.01 0.00 0.01 0.01 0.01 0.01 0.00 0.00 0.00 0.00 0.01 0.01 0.01 0.02 0.02 0.02 0.02 0.03 0.02 0.04 0.04 0.03 0.03 0.03 0.03 0.04 0.03 0.03 0.03 0.02 0.02 0.03 0.03 0.03 0.03 0.03 0.03 0.03 0.05 0.05 0.10 0.15 0.21 0.21 0.27 0.39 0.47 0.54 0.54 0.52 0.56 0.50 0.50 0.42 0.37 0.29 0.29 0.28 0.30 0.30 0.31 0.29 0.30
0.01 0.01 0.01 0.01 0.01 0.01 0.01 0.01 0.01 0.01 0.00 0.01 0.00 0.01 0.01 0.01 0.01 0.02 0.02 0.02 0.02 0.02 0.02 0.03 0.04 0.04 0.04 0.04 0.04 0.04 0.04 0.04 0.04 0.03 0.03 0.03 0.03 0.03 0.03 0.04 0.04 0.03 0.03 0.04 0.05 0.05 0.12 0.19 0.22 0.22 0.26 0.32 0.43 0.49 0.49 0.54 0.57 0.61 0.61 0.58 0.44 0.29 0.29 0.26 0.27 0.27 0.28 0.27 0.29
0.01 0.00 0.00 0.00 0.01 0.01 0.01 0.01 0.01 0.01 0.01 0.00 0.01 0.01 0.01 0.01 0.01 0.01 0.01 0.02 0.02 0.03 0.03 0.03 0.05 0.05 0.05 0.05 0.05 0.05 0.04 0.05 0.04 0.04 0.04 0.03 0.03 0.03 0.03 0.04 0.05 0.04 0.04 0.05 0.08 0.08 0.12 0.25 0.25 0.25 0.27 0.28 0.37 0.47 0.47 0.52 0.55 0.59 0.59 0.62 0.58 0.49 0.49 0.30 0.26 0.26 0.26 0.27 0.28
0.01 0.01 0.01 0.01 0.01 0.01 0.01 0.01 0.01 0.01 0.01 0.01 0.01 0.01 0.01 0.01 0.01 0.01 0.01 0.02 0.03 0.03 0.03 0.03 0.05 0.06 0.06 0.06 0.05 0.05 0.05 0.06 0.04 0.04 0.04 0.03 0.03 0.04 0.04 0.05 0.05 0.06 0.06 0.09 0.13 0.13 0.15 0.16 0.29 0.29 0.27 0.28 0.34 0.42 0.42 0.47 0.52 0.52 0.52 0.58 0.61 0.58 0.58 0.52 0.39 0.39 0.37 0.32 0.30
0.00 0.01 0.01 0.01 0.01 0.01 0.01 0.01 0.01 0.01 0.01 0.01 0.01 0.01 0.01 0.01 0.01 0.02 0.02 0.03 0.04 0.04 0.04 0.04 0.04 0.06 0.06 0.07 0.06 0.06 0.06 0.07 0.06 0.04 0.04 0.04 0.04 0.05 0.05 0.06 0.05 0.11 0.11 0.16 0.20 0.20 0.15 0.12 0.16 0.16 0.30 0.30 0.33 0.40 0.40 0.47 0.47 0.48 0.48 0.51 0.57 0.62 0.62 0.59 0.55 0.55 0.44 0.36 0.34
0.01 0.01 0.01 0.01 0.01 0.01 0.01 0.02 0.02 0.02 0.01 0.01 0.01 0.01 0.01 0.01 0.01 0.02 0.02 0.03 0.03 0.03 0.03 0.04 0.04 0.06 0.06 0.06 0.06 0.06 0.07 0.07 0.06 0.04 0.04 0.04 0.04 0.06 0.06 0.07 0.09 0.19 0.19 0.29 0.28 0.28 0.18 0.14 0.12 0.12 0.27 0.33 0.33 0.43 0.43 0.44 0.44 0.46 0.46 0.48 0.53 0.57 0.57 0.59 0.56 0.56 0.52 0.46 0.38
0.01 0.01 0.01 0.01 0.01 0.01 0.01 0.02 0.02 0.02 0.01 0.01 0.01 0.01 0.01 0.01 0.01 0.03 0.03 0.03 0.03 0.03 0.03 0.04 0.05 0.05 0.05 0.06 0.06 0.06 0.06 0.06 0.05 0.04 0.04 0.04 0.06 0.10 0.10 0.17 0.15 0.24 0.24 0.34 0.40 0.40 0.34 0.22 0.17 0.17 0.15 0.29 0.35 0.34 0.34 0.39 0.43 0.43 0.43 0.47 0.50 0.52 0.52 0.52 0.52 0.52 0.51 0.51 0.49
0.01 0.01 0.01 0.01 0.01 0.01 0.02 0.02 0.02 0.02 0.01 0.01 0.01 0.01 0.01 0.01 0.02 0.03 0.03 0.03 0.04 0.03 0.03 0.04 0.05 0.05 0.05 0.05 0.06 0.06 0.06 0.06 0.05 0.05 0.05 0.07 0.13 0.17 0.17 0.21 0.20 0.20 0.20 0.29 0.38 0.38 0.43 0.41 0.27 0.27 0.20 0.20 0.26 0.27 0.27 0.36 0.42 0.44 0.44 0.44 0.49 0.52 0.52 0.51 0.55 0.55 0.53 0.52 0.53
0.01 0.01 0.01 0.01 0.02 0.02 0.02 0.02 0.02 0.02 0.01 0.01 0.01 0.01 0.01 0.01 0.02 0.02 0.02 0.02 0.03 0.05 0.05 0.05 0.04 0.04 0.04 0.06 0.06 0.06 0.07 0.07 0.08 0.10 0.10 0.16 0.22 0.17 0.17 0.21 0.25 0.30 0.30 0.26 0.22 0.22 0.25 0.38 0.50 0.50 0.55 0.46 0.52 0.37 0.37 0.37 0.36 0.38 0.38 0.40 0.44 0.51 0.51 0.64 0.85 0.85 0.85 0.83 0.76
0.01 0.02 0.02 0.02 0.02 0.02 0.02 0.02 0.02 0.02 0.01 0.01 0.01 0.01 0.01 0.01 0.01 0.02 0.02 0.02 0.04 0.05 0.05 0.05 0.04 0.04 0.04 0.06 0.07 0.07 0.07 0.08 0.09 0.12 0.12 0.14 0.16 0.16 0.16 0.20 0.26 0.27 0.27 0.29 0.25 0.25 0.16 0.22 0.34 0.34 0.45 0.54 0.40 0.40 0.40 0.42 0.47 0.51 0.51 0.54 0.57 0.64 0.64 0.66 0.71 0.71 0.67 0.66 0.66
0.02 0.02 0.02 0.02 0.02 0.02 0.02 0.01 0.01 0.01 0.01 0.01 0.01 0.01 0.01 0.01 0.01 0.02 0.02 0.02 0.03 0.04 0.04 0.04 0.04 0.05 0.05 0.05 0.06 0.06 0.07 0.08 0.08 0.10 0.10 0.10 0.18 0.18 0.18 0.20 0.24 0.28 0.28 0.28 0.31 0.31 0.15 0.13 0.15 0.15 0.25 0.35 0.20 0.24 0.24 0.29 0.35 0.41 0.41 0.46 0.52 0.60 0.60 0.36 0.40 0.40 0.40 0.39 0.41
0.02 0.02 0.02 0.01 0.02 0.02 0.01 0.01 0.01 0.01 0.00 0.00 0.01 0.01 0.01 0.01 0.01 0.01 0.01 0.02 0.03 0.03 0.03 0.04 0.04 0.06 0.06 0.06 0.07 0.07 0.07 0.07 0.08 0.09 0.09 0.08 0.11 0.16 0.16 0.21 0.25 0.28 0.28 0.29 0.33 0.33 0.32 0.15 0.12 0.12 0.12 0.15 0.15 0.15 0.15 0.16 0.21 0.25 0.25 0.27 0.29 0.31 0.31 0.23 0.26 0.26 0.30 0.31 0.32
0.02 0.02 0.02 0.01 0.01 0.01 0.01 0.01 0.00 0.00 0.00 0.00 0.01 0.01 0.01 0.00 0.00 0.01 0.01 0.01 0.02 0.03 0.03 0.04 0.05 0.06 0.06 0.07 0.08 0.08 0.08 0.07 0.07 0.05 0.05 0.06 0.08 0.16 0.16 0.22 0.24 0.27 0.27 0.25 0.28 0.28 0.44 0.21 0.16 0.16 0.15 0.18 0.16 0.15 0.15 0.15 0.15 0.19 0.19 0.20 0.20 0.21 0.21 0.20 0.23 0.23 0.25 0.27 0.29
0.01 0.01 0.01 0.01 0.01 0.01 0.01 0.00 0.00 0.00 0.00 0.00 0.01 0.01 0.01 0.00 0.00 0.00 0.00 0.01 0.02 0.03 0.03 0.04 0.06 0.07 0.07 0.07 0.07 0.07 0.07 0.06 0.04 0.03 0.03 0.04 0.07 0.11 0.11 0.21 0.24 0.25 0.25 0.23 0.33 0.33 0.66 0.37 0.20 0.20 0.17 0.18 0.17 0.16 0.16 0.16 0.16 0.18 0.18 0.20 0.20 0.21 0.21 0.23 0.24 0.24 0.26 0.28 0.28
0.01 0.01 0.01 0.01 0.01 0.01 0.01 0.00 0.00 0.00 0.00 0.00 0.01 0.00 0.00 0.00 0.00 0.00 0.00 0.01 0.01 0.02 0.02 0.04 0.06 0.07 0.07 0.07 0.06 0.06 0.06 0.05 0.05 0.04 0.04 0.03 0.04 0.07 0.07 0.25 0.27 0.25 0.25 0.27 0.53 0.53 1.02 0.38 0.26 0.26 0.13 0.13 0.14 0.14 0.14 0.14 0.14 0.16 0.16 0.18 0.20 0.20 0.20 0.22 0.24 0.24 0.27 0.30 0.31
0.01 0.01 0.01 0.00 0.00 0.00 0.00 0.00 0.00 0.00 0.00 0.00 0.00 0.00 0.00 0.00 0.00 0.00 0.00 0.01 0.01 0.02 0.02 0.03 0.05 0.06 0.06 0.06 0.05 0.05 0.04 0.04 0.04 0.03 0.03 0.03 0.03 0.05 0.05 0.14 0.26 0.28 0.28 0.34 0.77 0.77 0.85 0.31 0.24 0.24 0.20 0.10 0.10 0.11 0.11 0.11 0.11 0.12 0.12 0.14 0.17 0.19 0.19 0.21 0.23 0.23 0.26 0.29 0.32
0.01 0.01 0.01 0.00 0.00 0.00 0.00 0.00 0.00 0.00 0.00 0.00 0.00 0.00 0.00 0.00 0.00 0.00 0.00 0.01 0.01 0.02 0.02 0.03 0.04 0.05 0.05 0.05 0.04 0.04 0.03 0.03 0.03 0.03 0.03 0.02 0.02 0.04 0.04 0.11 0.22 0.24 0.24 0.41 0.87 0.87 0.56 0.25 0.24 0.24 0.17 0.09 0.09 0.09 0.09 0.10 0.10 0.11 0.11 0.12 0.13 0.16 0.16 0.21 0.25 0.25 0.27 0.30 0.34
0.01 0.01 0.01 0.01 0.00 0.00 0.00 0.00 0.00 0.00 0.00 0.00 0.00 0.00 0.00 0.00 0.00 0.00 0.00 0.01 0.01 0.02 0.02 0.02 0.03 0.05 0.05 0.04 0.04 0.04 0.03 0.02 0.02 0.02 0.02 0.02 0.02 0.03 0.03 0.08 0.13 0.26 0.26 0.55 0.99 0.99 0.39 0.21 0.25 0.25 0.10 0.07 0.08 0.08 0.08 0.08 0.09 0.10 0.10 0.12 0.13 0.15 0.15 0.18 0.24 0.24 0.27 0.30 0.35
0.01 0.01 0.01 0.00 0.00 0.00 0.00 0.00 0.00 0.00 0.00 0.00 0.00 0.00 0.00 0.00 0.00 0.00 0.00 0.00 0.01 0.02 0.02 0.03 0.03 0.02 0.02 0.03 0.03 0.03 0.02 0.02 0.02 0.01 0.01 0.01 0.01 0.03 0.03 0.08 0.10 0.12 0.12 0.63 1.03 1.03 0.33 0.27 0.24 0.24 0.05 0.03 0.04 0.05 0.05 0.06 0.07 0.09 0.09 0.11 0.12 0.14 0.14 0.17 0.19 0.19 0.28 0.30 0.33
0.00 0.01 0.01 0.00 0.00 0.00 0.00 0.00 0.00 0.00 0.00 0.00 0.00 0.00 0.00 0.00 0.00 0.00 0.00 0.00 0.02 0.03 0.03 0.03 0.03 0.02 0.02 0.03 0.03 0.03 0.02 0.02 0.01 0.01 0.01 0.01 0.01 0.03 0.03 0.09 0.11 0.08 0.08 0.61 0.95 0.95 0.29 0.39 0.16 0.16 0.03 0.02 0.02 0.02 0.02 0.03 0.05 0.07 0.07 0.09 0.09 0.12 0.12 0.14 0.17 0.17 0.20 0.27 0.31
0.00 0.01 0.01 0.00 0.00 0.00 0.00 0.00 0.00 0.00 0.00 0.00 0.00 0.00 0.00 0.00 0.00 0.00 0.00 0.00 0.02 0.06 0.06 0.03 0.03 0.02 0.02 0.02 0.02 0.02 0.02 0.02 0.01 0.01 0.01 0.01 0.01 0.02 0.02 0.09 0.11 0.07 0.07 0.25 0.82 0.82 0.28 0.53 0.10 0.10 0.02 0.02 0.01 0.01 0.01 0.01 0.02 0.04 0.04 0.04 0.07 0.09 0.09 0.11 0.14 0.14 0.17 0.21 0.25
0.00 0.00 0.00 0.00 0.00 0.00 0.00 0.00 0.00 0.00 0.00 0.00 0.00 0.00 0.00 0.00 0.00 0.00 0.00 0.00 0.01 0.05 0.05 0.02 0.02 0.02 0.02 0.02 0.01 0.01 0.01 0.01 0.01 0.01 0.01 0.01 0.01 0.02 0.02 0.09 0.11 0.07 0.07 0.35 0.50 0.50 0.26 0.66 0.08 0.08 0.02 0.02 0.02 0.01 0.01 0.01 0.01 0.02 0.02 0.03 0.06 0.08 0.08 0.08 0.11 0.11 0.15 0.18 0.23
0.00 0.00 0.00 0.00 0.00 0.00 0.00 0.00 0.00 0.00 0.00 0.00 0.00 0.00 0.00 0.00 0.00 0.00 0.00 0.00 0.01 0.05 0.05 0.03 0.02 0.02 0.02 0.02 0.02 0.02 0.02 0.02 0.01 0.01 0.01 0.00 0.00 0.01 0.01 0.08 0.10 0.07 0.07 0.42 0.39 0.39 0.49 0.75 0.08 0.08 0.02 0.01 0.02 0.02 0.02 0.02 0.01 0.01 0.01 0.02 0.06 0.08 0.08 0.09 0.10 0.10 0.14 0.16 0.16
0.00 0.00 0.00 0.00 0.00 0.00 0.00 0.00 0.00 0.00 0.00 0.00 0.00 0.00 0.00 0.00 0.00 0.00 0.00 0.00 0.01 0.05 0.05 0.04 0.03 0.03 0.03 0.03 0.02 0.02 0.03 0.02 0.01 0.01 0.01 0.00 0.00 0.01 0.01 0.07 0.09 0.07 0.07 0.44 0.35 0.35 0.42 0.79 0.07 0.07 0.02 0.01 0.02 0.02 0.02 0.02 0.02 0.02 0.02 0.03 0.05 0.08 0.08 0.10 0.11 0.11 0.13 0.14 0.14
0.00 0.00 0.00 0.00 0.00 0.00 0.00 0.00 0.00 0.00 0.00 0.00 0.00 0.00 0.00 0.00 0.00 0.00 0.00 0.00 0.00 0.04 0.04 0.05 0.04 0.03 0.03 0.02 0.02 0.02 0.03 0.02 0.01 0.01 0.01 0.00 0.00 0.01 0.01 0.05 0.07 0.07 0.07 0.38 0.31 0.31 0.36 0.30 0.05 0.05 0.01 0.01 0.01 0.02 0.02 0.02 0.02 0.02 0.02 0.03 0.05 0.06 0.06 0.10 0.11 0.11 0.12 0.14 0.12
0.00 0.00 0.00 0.00 0.00 0.00 0.00 0.00 0.01 0.01 0.00 0.00 0.00 0.00 0.00 0.00 0.00 0.00 0.00 0.00 0.00 0.02 0.02 0.05 0.03 0.02 0.02 0.01 0.02 0.02 0.03 0.03 0.01 0.01 0.01 0.01 0.00 0.00 0.00 0.04 0.06 0.06 0.06 0.32 0.31 0.31 0.32 0.34 0.67 0.67 0.00 0.00 0.01 0.01 0.01 0.01 0.02 0.01 0.01 0.02 0.05 0.06 0.06 0.06 0.10 0.10 0.12 0.12 0.10
0.00 0.00 0.00 0.00 0.00 0.00 0.00 0.00 0.01 0.01 0.00 0.00 0.00 0.00 0.00 0.00 0.00 0.00 0.00 0.00 0.00 0.01 0.01 0.04 0.03 0.02 0.02 0.01 0.02 0.02 0.03 0.03 0.02 0.01 0.01 0.01 0.00 0.00 0.00 0.03 0.06 0.05 0.05 0.30 0.34 0.34 0.30 0.40 0.55 0.55 0.04 0.00 0.00 0.00 0.00 0.01 0.00 0.01 0.01 0.02 0.04 0.07 0.07 0.09 0.11 0.11 0.13 0.11 0.07
0.00 0.00 0.00 0.00 0.00 0.00 0.00 0.01 0.01 0.01 0.00 0.00 0.00 0.00 0.00 0.00 0.00 0.00 0.00 0.00 0.00 0.00 0.00 0.01 0.02 0.02 0.02 0.01 0.02 0.02 0.03 0.03 0.02 0.01 0.01 0.00 0.00 0.00 0.00 0.02 0.06 0.05 0.05 0.26 0.36 0.36 0.30 0.45 0.57 0.57 0.03 0.00 0.00 0.00 0.00 0.00 0.00 0.00 0.00 0.01 0.02 0.05 0.05 0.09 0.15 0.15 0.19 0.26 0.19
0.00 0.00 0.00 0.00 0.00 0.00 0.00 0.01 0.01 0.01 0.00 0.00 0.00 0.00 0.00 0.00 0.00 0.00 0.00 0.00 0.00 0.01 0.01 0.01 0.01 0.01 0.01 0.01 0.02 0.02 0.03 0.02 0.01 0.01 0.01 0.01 0.00 0.00 0.00 0.01 0.05 0.04 0.04 0.18 0.41 0.41 0.30 0.46 0.63 0.63 0.03 0.01 0.00 0.00 0.00 0.00 0.00 0.00 0.00 0.01 0.01 0.02 0.02 0.05 0.11 0.11 0.22 0.30 0.36
0.00 0.00 0.00 0.00 0.00 0.00 0.00 0.02 0.01 0.01 0.00 0.00 0.00 0.00 0.00 0.00 0.00 0.00 0.00 0.00 0.00 0.01 0.01 0.01 0.01 0.01 0.01 0.01 0.02 0.02 0.03 0.01 0.01 0.01 0.01 0.01 0.00 0.00 0.00 0.00 0.04 0.03 0.03 0.11 0.44 0.44 0.29 0.43 0.63 0.63 0.05 0.02 0.01 0.00 0.00 0.00 0.00 0.00 0.00 0.00 0.01 0.01 0.01 0.02 0.05 0.05 0.13 0.15 0.38
0.00 0.00 0.00 0.00 0.00 0.00 0.00 0.02 0.00 0.00 0.00 0.00 0.00 0.00 0.00 0.00 0.00 0.00 0.00 0.00 0.00 0.01 0.01 0.01 0.01 0.01 0.01 0.02 0.02 0.02 0.03 0.01 0.00 0.00 0.00 0.01 0.00 0.00 0.00 0.00 0.02 0.02 0.02 0.06 0.36 0.36 0.27 0.42 0.57 0.57 0.10 0.03 0.01 0.00 0.00 0.00 0.00 0.00 0.00 0.00 0.00 0.01 0.01 0.00 0.01 0.01 0.01 0.03 0.16
0.00 0.00 0.00 0.00 0.00 0.00 0.01 0.02 0.00 0.00 0.00 0.00 0.00 0.00 0.00 0.00 0.00 0.00 0.00 0.00 0.00 0.01 0.01 0.01 0.01 0.01 0.01 0.02 0.02 0.02 0.03 0.01 0.00 0.00 0.00 0.01 0.00 0.00 0.00 0.00 0.00 0.01 0.01 0.03 0.25 0.25 0.28 0.43 0.52 0.52 0.16 0.03 0.01 0.00 0.00 0.00 0.00 0.00 0.00 0.00 0.00 0.00 0.00 0.00 0.00 0.00 0.00 0.00 0.01